Weather Roundup
Issued by NWS Corpus Christi, TX

Home | Current Version | Previous Version | Text Only | Print | Product List | Glossary Off
Versions: 1 2 3 4 5 6 7 8 9 10 11 12 13 14 15 16 17 18 19 20 21 22 23 24 25 26 27 28 29 30 31 32 33 34 35 36 37 38 39 40 41 42 43 44 45 46 47 48 49 50

000
ASUS44 KCRP 141610
HRRCRP

SOUTH TEXAS REGIONAL WEATHER ROUNDUP
NATIONAL WEATHER SERVICE CORPUS CHRISTI TX
1000 AM CST SUN FEB 14 2016


TXZ229>244-141700-
...CORPUS CHRISTI AREA OBSERVATIONS...

CITY           SKY/WX    TMP DP  RH WIND       PRES   REMARKS
CORPUS CHRISTI MOSUNNY   73  60  63 S23G31    30.02F
NAS CORPUS CHR SUNNY     73  63  70 S18       30.03F
ROCKPORT       SUNNY     72  62  71 S14G23    30.03F
KINGSVILLE NAS PTSUNNY   70  64  81 S17G24    30.03S
ALICE          MOSUNNY   69  61  75 S18       30.03S
FALFURRIAS     MOSUNNY   64  63  96 SE8       30.03S
$$

...VICTORIA AREA OBSERVATIONS...

CITY           SKY/WX    TMP DP  RH WIND       PRES   REMARKS
VICTORIA       MOSUNNY   68  63  84 S15       30.04S
BEEVILLE       PTSUNNY   70  63  78 S21G26    30.03S
PLEASANTON     CLOUDY    60  60  99 S10G20    30.03F
SAN ANTONIO    CLOUDY    59  56  89 S12       30.03S
$$

...LAREDO AREA OBSERVATIONS...

CITY           SKY/WX    TMP DP  RH WIND       PRES   REMARKS
LAREDO         MOSUNNY   67  56  67 S15       30.00F
COTULLA        MOSUNNY   65  57  75 S12G18    30.00F
DEL RIO        CLOUDY    60  54  80 E8        29.99R
MCALLEN        SUNNY     70  59  68 S18G24    30.03F
HEBBRONVILLE   NOT AVBL
$$

...OTHER TEXAS OBSERVATIONS...

CITY           SKY/WX    TMP DP  RH WIND       PRES   REMARKS
BROWNSVILLE    PTSUNNY   73  60  63 S21G31    30.04S
HOUSTON        PTSUNNY   68  55  63 S10G21    30.06S
COL. STATION   MOSUNNY   64  57  78 S14       30.03F
AUSTIN         CLOUDY    61  57  87 S17       30.01F
WACO           PTSUNNY   63  54  72 S18       29.98R
FORT WORTH     CLOUDY    61  53  75 S14       29.95F
WICHITA FALLS  CLOUDY    56  45  66 W6        29.90R
LUBBOCK        CLOUDY    50  28  42 NE18      30.02R
EL PASO        MOSUNNY   53  15  22 CALM      30.06R
$$

...MARINE OBSERVATIONS...

STATION/POSITION TIME  SKY/WX   TEMP    WIND        PRES    VSBY  WAVE   SWELL
                                AIR SEA DIR/SP/G                  HT/PER HT/PER
                 (UTC)          (F)     (DEG/KT/KT) (MB)    (MI)  (FT/S) (FT/S)
PORT ARANSAS     1600            66 65  140/ 12/ 14 1017.6F
BUOY 90 E PORT A 1550            69 63  170/ 16/ 17 1018.5R         6/ 6
BUOY 45 SE BAFFI 1550            69 68  170/ 12/ 14 1017.4S         4/ 6   2/ 6
BUOY 200 E PT IS 1550                                 N/A           3/ 6   2/11
BUOY 15 E GALVES 1550            62 60  140/  8/ 10 1019.1F         3/ 6   3/ 6
$$



USA.gov is the U.S. government's official web portal to all federal, state and local government web resources and services.